Regional Weather Roundup
Issued by NWS San Diego, CA

Home | Current Version | Previous Version | Text Only | Print | Product List | Glossary On
Versions: 1 2 3 4 5 6 7 8 9 10 11 12 13 14 15 16 17 18 19 20 21 22 23 24 25 26 27 28 29 30 31 32 33 34 35 36 37 38 39 40 41 42 43 44 45 46 47 48 49 50
000
ASUS46 KSGX 280411
RWRSGX

SAN DIEGO HOURLY WEATHER ROUNDUP
NATIONAL WEATHER SERVICE SAN DIEGO CA
900 PM PDT WED MAY 27 2015

NOTE: "FAIR" INDICATES FEW OR NO CLOUDS BELOW 12,000 FEET WITH NO
SIGNIFICANT WEATHER AND/OR OBSTRUCTIONS TO VISIBILITY.

CAZ042-043-060-061-PZZ750-775-280500-

GREATER SAN DIEGO AREA

CITY           SKY/WX    TMP DP  RH WIND       PRES   REMARKS
LINDBERGH FLD  MOCLDY    63  54  72 NW6       30.00R
POINT LOMA       N/A     60  55  82 NW10        N/A
NATIONAL CITY    N/A     63  56  79 N3        29.99R
CHULA VISTA      N/A     62  57  83 W9        29.92R
IMPERIAL BEACH MOCLDY    63  55  75 NW8       29.99S
BROWN FIELD    CLOUDY    60  54  80 W6        29.98S
MONTGOMERY FLD CLOUDY    61  53  75 NW5       29.99R

$$

NORTH SAN DIEGO COUNTY

CITY           SKY/WX    TMP DP  RH WIND       PRES   REMARKS
CAMP PENDLETON PTCLDY    61  54  77 CALM      29.98R
OCEANSIDE AP   MOCLDY    62  55  77 CALM      29.97R
OCEANSIDE HBR    N/A     63  58  83 W3        30.00S
VISTA            N/A     61  55  82 SW2       29.97R
CARLSBAD       CLOUDY    62  55  77 CALM      29.98R
DEL MAR          N/A     62  57  84 CALM      30.01R
LA JOLLA SCRIP   N/A    N/A N/A N/A W3        29.96S
FALLBROOK        N/A     59  58  95 CALM      29.97R
ESCONDIDO        N/A     61  55  80 W7        30.00R
SAN MARCOS       N/A     60  55  84 CALM      29.97R
POWAY            N/A     60  55  82 CALM      30.00R

$$

EAST SAN DIEGO COUNTY

CITY           SKY/WX    TMP DP  RH WIND       PRES   REMARKS
RAMONA         CLEAR     54  52  93 W7        29.99R
SANTEE LAKES     N/A     60  55  82 CALM      29.98R
LA MESA          N/A     60  54  80 NW6       29.93R
JAMUL            N/A     59  54  83 CALM      29.97S
DESCANSO N       N/A     54  50  86 CALM      29.84S
MT. LAGUNA OBS   N/A     56  40  55 CALM      29.69R
CAMPO            N/A     56  52  86 S3        29.96R

$$

ORANGE COUNTY AND THE LOS ANGELES BASIN

CITY           SKY/WX    TMP DP  RH WIND       PRES   REMARKS
JOHN WAYNE AP  PTCLDY    61  53  75 CALM      29.98R
LAKE FOREST FR   N/A     59  51  77 CALM      29.89R
SANTA ANA        N/A     64  55  72 CALM      29.93R
HUNTINGTON BCH   N/A     61  56  85 SW6       29.99R
FULLERTON      CLEAR     64  53  67 CALM      29.97R
LONG BEACH     CLEAR     63  54  72 NW7       29.97S
L.A. AP        PTCLDY    59  55  87 W8        29.98S
L.A. DOWNTOWN  CLEAR     61  54  77 W5        29.97S

$$

THE INLAND EMPIRE

CITY           SKY/WX    TMP DP  RH WIND       PRES   REMARKS
CORONA         CLEAR     63  54  72 W9        29.96R
CHINO          CLEAR     63  54  72 W10       29.98R
ONTARIO        CLEAR     63  53  70 W9        29.97R
SAN BERNARDINO CLEAR     64  50  59 SW9       29.97R
RIVERSIDE AP   CLEAR     64  54  69 W8        29.97R
RIV CYN CREST    N/A     65  61  86 NW3         N/A
MORENO VALLEY    N/A     65  58  77 NW2       29.94R
HORSETHIEF CYN   N/A     64  52  64 W7        29.93R
PERRIS           N/A     65  55  68 NW5         N/A
MENIFEE          N/A     64  57  80 S5        30.03R
HEMET EAST       N/A     66  52  61 CALM      29.94R
FRENCH VALLEY  FAIR      61  54  77 S6        29.98S
TEMECULA         N/A     62  56  81 CALM      29.94R

$$

SAN BERNARDINO AND RIVERSIDE COUNTY MOUNTAINS

CITY           SKY/WX    TMP DP  RH WIND       PRES   REMARKS
BIG BEAR AP    CLEAR     52  32  46 CALM      30.18R
PINE COVE        N/A     56  43  61 NW1       29.89S

$$

SOUTHERN DESERT INCLUDING THE COACHELLA VALLEY

CITY           SKY/WX    TMP DP  RH WIND       PRES   REMARKS
PALM SPRINGS   CLEAR     85  50  29 NW18      29.82R
THOUSAND PALMS   N/A     83  51  33 NW13      29.79R
PALM DESERT      N/A     85  52  31 CALM        N/A
THERMAL        CLEAR     85  47  26 NW7       29.77R
BLYTHE         CLEAR     86  44  23 S9        29.80R
IMPERIAL AP    CLEAR     88  42  20 S9        29.77R
EL CENTRO NAS  CLEAR     85  46  25 W7        29.80R
YUMA AZ        PTCLDY    85  43  22 SW3       29.81R
MEXICALI       CLEAR     81  39  22 S5        29.80R

$$

UPPER DESERT

CITY           SKY/WX    TMP DP  RH WIND       PRES   REMARKS
VICTORVILLE AP CLEAR     72  39  30 SW9       29.97R
HESPERIA         N/A     69  36  30 W3        29.99R
APPLE VALLEY     N/A     71  38  30 CALM      30.01R
PALMDALE       CLEAR     70  38  31 W14       29.98R
LANCASTER      CLEAR     69  42  37 SW13      29.96R
DAGGETT        CLEAR     83  27  13 SW16      29.87R
29 PALMS N     CLEAR     80  41  24 SW18      29.93R

$$

REGIONAL REPORTS

CITY           SKY/WX    TMP DP  RH WIND       PRES   REMARKS
SANTA BARBARA  CLEAR     60  55  83 SE7       29.94S
SANDBERG       CLEAR     64  42  44 NW18      30.09R
LAS VEGAS NV   PTCLDY    87  30  13 S9        29.80R
PHOENIX AZ     PTCLDY    90  28  11 NW6       29.82R
TIJUANA        MOCLDY    61  52  72 W10       30.01R
ENSENADA NW      N/A     61  32  33 W9        29.96R

$$

OFFSHORE ISLANDS

CITY           SKY/WX    TMP DP  RH WIND       PRES   REMARKS
CATALINA ARPT  FOG       53  52  96 SW6       29.99S VSB 3/4
SAN NICOLAS IS CLOUDY   N/A N/A N/A W16       29.99R

$$

MARINE AND OFFSHORE BUOY REPORTS

STATION/POSITION SKY/WX   TEMP    WIND        PRES    SWELL
                          AIR SEA DIR/SP/G            HT/PER/DIR
                          (F)     (DEG/KT/KT) (MB)    (FT/S/D)
TANNER BANKS               59 60  320/ 14/ 19 1015.9R   3/300/15
S CLEMENTE BASIN           60 62  300/ 12/ 16 1015.2R   5/250/17
SAN NICOLAS IS.               60                N/A     3/220/18
SO. S. ROSA ISLA           57 60  310/ 16/ 19 1014.8R   3/17
W. S. BARBARA CH           56 56  320/ 17/ 21 1014.9R   3/260/15
M. S. BARBARA CH           58 59  260/ 14/ 17 1014.4F
S. MONICA BASIN            60 64  310/  2/  2 1015.0R   3/230/14
S PEDRO CHANNEL               63                N/A     2/190/13
DANA POINT                    65                N/A     3/210/15
OCEANSIDE OFFSHR              66                N/A     3/220/18
TORREY PINES OTR              65                N/A     3/220/13
LA JOLLA 1                 62 65  320/  6/  8 1015.0R
MISSION BAY BUOY              65                N/A     3/220/18
SAN DIEGO BAY                 67              1015.5R
POINT LOMA SOUTH              64                N/A     3/220/18

$$



USA.gov is the U.S. government's official web portal to all federal, state and local government web resources and services.